Simultaneous Nadir Overpasses (SNOs) Predictions

Prediction of SNOs between NOAA-20 and TERRA Satellite Orbit:

Table of predicted SNOs for the next 14.0 days since TLE Epoch: 8/30/2024
Index Date (NOAA-20) Time (NOAA-20) Lat,Lon (NOAA-20) SZA (NOAA-20 ) Date (TERRA) Time (TERRA) Lat,Lon (TERRA) SZA (TERRA ) Distance(km) Time Diff (sec)
1 08/31/2024 08:26:32 72.59, 45.30 64.28 08/31/2024 08:27:40 72.60, 45.33 64.27 1.66 68
2 08/31/2024 09:17:14 -72.48,-147.16 115.84 08/31/2024 09:17:04 -72.47,-147.25 115.84 3.09 10
3 08/31/2024 10:07:44 71.68, 21.68 63.32 08/31/2024 10:06:38 71.70, 19.09 63.48 90.40 66
4 09/02/2024 19:39:10 73.41,-124.55 66.06 09/02/2024 19:40:15 73.29,-121.59 65.80 95.04 65
5 09/02/2024 20:29:37 -72.53, 44.63 114.89 09/02/2024 20:29:51 -72.52, 44.61 114.90 1.64 14
6 09/02/2024 21:20:21 72.46,-147.90 65.05 09/02/2024 21:19:12 72.45,-147.86 65.05 1.84 69
7 09/05/2024 07:41:59 -72.55,-123.50 113.96 09/05/2024 07:42:37 -72.56,-123.55 113.96 1.82 38
8 09/05/2024 08:32:43 72.48, 43.95 65.98 09/05/2024 08:31:58 72.48, 43.97 65.98 0.45 45
9 09/07/2024 18:54:21 -72.59, 68.33 113.01 09/07/2024 18:55:22 -72.59, 68.28 113.02 1.99 61
10 09/07/2024 19:45:05 72.52,-124.21 66.93 09/07/2024 19:44:43 72.50,-124.22 66.91 2.05 22
11 09/10/2024 06:06:50 -72.99,-100.59 111.66 09/10/2024 06:08:01 -72.88, -99.41 111.83 40.48 71
12 09/10/2024 06:57:27 72.57, 67.59 67.91 09/10/2024 06:57:26 72.56, 67.67 67.90 2.79 1
13 09/10/2024 07:48:05 -72.24,-124.44 112.44 09/10/2024 07:46:53 -72.30,-125.14 112.34 24.60 72
14 09/12/2024 18:09:47 72.58,-100.53 68.85 09/12/2024 18:10:08 72.56,-100.55 68.83 2.29 21
15 09/12/2024 19:00:29 -72.46, 67.04 111.27 09/12/2024 18:59:32 -72.47, 66.94 111.25 3.66 57



Historial Predications of SNOs between NOAA-20 and TERRA
